Location: Apeadero de Los Molinos-Guadarrama
(40.7091°N, 4.0689°W)
Time: 12:58:11
(UTC+00:00)

CZ-4C R/B - Pass Details

Date: 14 May 2021
Orbit: 609 x 1393 km, 63.4° (Epoch: 18 June)

Event Time Altitude Azimuth Distance (km) Brightness Sun altitude
Rises 20:19:48 0° 327° (NNW) 3,849 7.1 -9.6°
Reaches altitude 10° 20:22:20 10° 331° (NNW) 2,997 6.2 -10.0°
Maximum altitude 20:29:37 62° 52° (NE) 1,398 3.2 -11.1°
Enters shadow 20:36:44 15° 130° (SE) 3,018 4.4 -12.2°
